Hebron, NE

8:27 PM CDT on June 28, 2017 (GMT -0500)
Hebron Municipal

Weather History for KHJH - April, 2012

Change the Weather History Date:

Sunday, April 15, 2012

  Actual Average Record
Temperature  
Mean Temperature 64 °F -  
Max Temperature 68 °F 63 °F 87 °F (1992)
Min Temperature 59 °F 39 °F 21 °F (2014)
Degree Days  
Heating Degree Days 2    
Growing Degree Days 14 (Base 50)    
Moisture  
Dew Point 52 °F    
Average Humidity 68    
Maximum Humidity 93    
Minimum Humidity 33    
Precipitation  
Precipitation 0.03 in - - ()
Sea Level Pressure  
Sea Level Pressure 29.34 in    
Wind  
Wind Speed 18 mph (SSW)    
Max Wind Speed 31 mph    
Max Gust Speed 40 mph    
Visibility 10 miles    
Events      
Averages and records for this station are not official NWS values.
T = Trace of Precipitation, MM = Missing Value Source: NWS Daily Summary

Daily Weather History Graph

Daily Weather History Graph

Search for Another Location

Airport or City:

Trip Planner

Search our weather history database for the weather conditions in past years. The results will help you decide how hot, cold, wet, or windy it might be!

Date:

Astronomy

Apr. 15, 2012 Rise Set
Actual Time 6:51 AM CDT 8:09 PM CDT
Civil Twilight 6:23 AM CDT 8:37 PM CDT
Nautical Twilight 5:49 AM CDT 9:11 PM CDT
Astronomical Twilight 5:14 AM CDT 9:47 PM CDT
Moon 3:50 AM CDT (4/15) 3:05 PM CDT (4/15)
Length of Visible Light 14h 14m
Length of Day
13h 18m
Waning Crescent, 27% of the Moon is Illuminated
Apr 15
Waning Crescent
Apr 21
New
Apr 29
First Quarter
May 5
Full
May 12
Last Quarter

Hourly Weather History & Observations

Time (CDT) Temp. Dew Point Humidity Pressure Visibility Wind Dir Wind Speed Gust Speed Precip Events Conditions
12:15 AM 68.0 °F 63.0 °F 84% 29.37 in 10.0 mi South 23.0 mph 27.6 mph N/A   Clear
12:35 AM 67.8 °F 63.0 °F 84% 29.37 in 10.0 mi South 19.6 mph 31.1 mph N/A   Clear
12:55 AM 66.6 °F 62.8 °F 88% 29.37 in 10.0 mi South 18.4 mph 28.8 mph N/A   Clear
1:15 AM 66.4 °F 62.6 °F 88% 29.37 in 10.0 mi South 16.1 mph 24.2 mph N/A   Clear
1:35 AM 66.2 °F 59.7 °F 80% 29.36 in 10.0 mi South 13.8 mph 25.3 mph N/A   Clear
1:55 AM 65.3 °F 59.0 °F 80% 29.37 in 10.0 mi South 11.5 mph 23.0 mph N/A   Clear
2:15 AM 63.7 °F 58.6 °F 84% 29.36 in 10.0 mi South 15.0 mph 23.0 mph N/A   Clear
2:35 AM 63.5 °F 59.4 °F 86% 29.35 in 10.0 mi South 16.1 mph 21.9 mph N/A   Clear
2:55 AM 64.4 °F 60.8 °F 88% 29.36 in 10.0 mi South 18.4 mph 23.0 mph N/A   Clear
3:15 AM 64.8 °F 61.2 °F 88% 29.34 in 10.0 mi South 15.0 mph 24.2 mph N/A   Clear
3:35 AM 64.9 °F 61.5 °F 89% 29.35 in 10.0 mi South 16.1 mph 20.7 mph N/A   Clear
4:15 AM 65.5 °F 62.2 °F 89% 29.34 in 10.0 mi South 13.8 mph 20.7 mph N/A   Scattered Clouds
4:35 AM 65.3 °F 60.8 °F 85% 29.33 in 10.0 mi South 15.0 mph 24.2 mph N/A   Clear
4:55 AM 64.6 °F 60.4 °F 86% 29.34 in 10.0 mi South 9.2 mph - N/A   Clear
5:15 AM 63.7 °F 60.8 °F 90% 29.34 in 10.0 mi WNW 3.5 mph - N/A   Clear
5:35 AM 64.2 °F 61.3 °F 90% 29.34 in 10.0 mi SW 3.5 mph - N/A   Mostly Cloudy
5:55 AM 63.9 °F 61.7 °F 93% 29.34 in 10.0 mi South 9.2 mph - N/A   Scattered Clouds
6:15 AM 63.5 °F 61.2 °F 92% 29.33 in 10.0 mi South 6.9 mph - N/A   Clear
6:35 AM 63.3 °F 61.2 °F 93% 29.32 in 10.0 mi South 12.7 mph 16.1 mph N/A   Scattered Clouds
6:55 AM 62.6 °F 60.4 °F 93% 29.32 in 10.0 mi South 12.7 mph 18.4 mph N/A   Scattered Clouds
7:15 AM 62.2 °F 60.1 °F 93% 29.31 in 7.0 mi South 13.8 mph 17.3 mph N/A   Clear
7:35 AM 61.9 °F 59.5 °F 92% 29.31 in 10.0 mi South 13.8 mph - N/A   Clear
7:55 AM 61.7 °F 58.5 °F 89% 29.31 in 10.0 mi South 12.7 mph - N/A   Clear
8:15 AM 61.9 °F 57.0 °F 84% 29.33 in 10.0 mi South 15.0 mph 18.4 mph N/A   Clear
8:35 AM 62.8 °F 55.2 °F 76% 29.32 in 10.0 mi South 20.7 mph 25.3 mph N/A   Clear
8:55 AM 63.5 °F 50.9 °F 63% 29.34 in 10.0 mi SSW 19.6 mph 29.9 mph N/A   Clear
9:15 AM 62.6 °F 48.9 °F 61% 29.32 in 10.0 mi SSW 21.9 mph 28.8 mph N/A   Clear
9:35 AM 61.7 °F 46.0 °F 56% 29.32 in 10.0 mi SW 21.9 mph 31.1 mph N/A   Clear
9:55 AM 60.8 °F 42.1 °F 50% 29.33 in 10.0 mi SSW 20.7 mph 29.9 mph N/A   Clear
10:15 AM 59.9 °F 39.6 °F 47% 29.34 in 10.0 mi SSW 20.7 mph 32.2 mph N/A   Clear
10:35 AM 59.9 °F 39.7 °F 47% 29.34 in 10.0 mi SSW 16.1 mph 28.8 mph N/A   Clear
10:55 AM 60.6 °F 38.7 °F 44% 29.35 in 10.0 mi SSW 20.7 mph 29.9 mph N/A   Clear
11:15 AM 61.2 °F 39.0 °F 44% 29.33 in 10.0 mi SSW 19.6 mph 31.1 mph N/A   Clear
11:35 AM 62.4 °F 36.7 °F 38% 29.33 in 10.0 mi SSW 23.0 mph 32.2 mph N/A   Clear
11:55 AM 63.0 °F 37.2 °F 38% 29.33 in 10.0 mi SSW 20.7 mph 29.9 mph N/A   Clear
12:15 PM 63.1 °F 33.8 °F 33% 29.33 in 10.0 mi SSW 27.6 mph 35.7 mph N/A   Clear
12:35 PM 63.3 °F 34.7 °F 34% 29.33 in 10.0 mi SSW 21.9 mph 35.7 mph N/A   Clear
12:55 PM 64.4 °F 36.9 °F 36% 29.33 in 10.0 mi SW 24.2 mph 34.5 mph N/A   Clear
1:15 PM 64.0 °F 37.4 °F 37% 29.33 in 10.0 mi SSW 21.9 mph 40.3 mph N/A   Clear
1:35 PM 64.9 °F 37.9 °F 37% 29.32 in 10.0 mi SSW 25.3 mph 38.0 mph N/A   Clear
1:55 PM 65.3 °F 39.7 °F 39% 29.32 in 10.0 mi SSW 27.6 mph 35.7 mph N/A   Scattered Clouds
2:15 PM 64.6 °F 41.4 °F 43% 29.32 in 10.0 mi SSW 26.5 mph 38.0 mph N/A   Scattered Clouds
2:35 PM 62.6 °F 45.3 °F 53% 29.32 in 10.0 mi SW 21.9 mph 40.3 mph N/A   Mostly Cloudy
2:55 PM 62.6 °F 47.1 °F 57% 29.33 in 10.0 mi SW 26.5 mph 36.8 mph N/A   Overcast
3:15 PM 61.2 °F 47.7 °F 61% 29.33 in 10.0 mi SW 31.1 mph 39.1 mph N/A   Overcast
3:35 PM 61.7 °F 48.7 °F 62% 29.33 in 10.0 mi SW 25.3 mph 36.8 mph N/A   Overcast
3:55 PM 60.8 °F 47.7 °F 62% 29.33 in 10.0 mi SW 21.9 mph 36.8 mph N/A   Overcast
4:15 PM 60.1 °F 46.6 °F 61% 29.35 in 10.0 mi WSW 29.9 mph 36.8 mph N/A   Overcast